IRIDIUM 106 1 41917U 17003A 26123.23433157 .00000017 00000+0 -11680-5 0 9994 2 41917 86.3930 107.3517 0002571 81.5081 278.6406 14.34217722486762 IRIDIUM 103 1 41918U 17003B 26123.22164632 .00000012 00000+0 -29008-5 0 9991 2 41918 86.3930 107.2568 0002399 94.6819 265.4651 14.34217507486789 IRIDIUM 109 1 41919U 17003C 26123.01868302 .00000020 00000+0 14659-6 0 9999 2 41919 86.3929 107.4004 0002307 89.7259 270.4201 14.34217594486724 IRIDIUM 102 1 41920U 17003D 26123.19627572 .00000005 00000+0 -53257-5 0 9992 2 41920 86.3931 107.2509 0002141 86.5437 273.6004 14.34217459486834 IRIDIUM 105 1 41921U 17003E 26123.22493791 .00000284 00000+0 93895-4 0 9990 2 41921 86.3953 75.6652 0002308 86.9837 273.1623 14.34398252488698 IRIDIUM 104 1 41922U 17003F 26123.20895850 .00000131 00000+0 39783-4 0 9998 2 41922 86.3931 107.2873 0002233 95.1664 264.9787 14.34218724486826 IRIDIUM 114 1 41923U 17003G 26123.00599827 -.00000011 00000+0 -10868-4 0 9994 2 41923 86.3931 107.3557 0002211 93.2728 266.8720 14.34217416486772 IRIDIUM 108 1 41924U 17003H 26123.24359376 .00000047 00000+0 95785-5 0 9993 2 41924 86.3947 75.5499 0002177 83.2282 276.9162 14.34217700488664 IRIDIUM 112 1 41925U 17003J 26123.20261803 .00000009 00000+0 -37117-5 0 9991 2 41925 86.3926 107.1175 0002217 91.4276 268.7173 14.34217742486827 IRIDIUM 111 1 41926U 17003K 26122.42247570 .00000153 00000+0 47708-4 0 9995 2 41926 86.3927 107.5134 0002338 89.9235 270.2228 14.34219496486691 IRIDIUM 113 1 42803U 17039A 26123.10012871 .00000041 00000+0 74123-5 0 9997 2 42803 86.3979 341.0321 0001958 92.9959 267.1461 14.34217809464720 IRIDIUM 123 1 42804U 17039B 26123.21137707 .00000062 00000+0 15192-4 0 9999 2 42804 86.4012 12.4344 0002332 85.8045 274.3418 14.34217821463509 IRIDIUM 120 1 42805U 17039C 26123.09378670 .00000053 00000+0 12034-4 0 9994 2 42805 86.3972 340.8236 0002185 83.1564 276.9880 14.34217844464715 IRIDIUM 115 1 42806U 17039D 26123.05352956 .00000322 00000+0 89814-4 0 9999 2 42806 86.4507 340.9630 0002464 84.7254 275.4228 14.43280125467752 IRIDIUM 118 1 42807U 17039E 26123.17332031 .00000037 00000+0 63120-5 0 9991 2 42807 86.4008 12.4484 0002167 86.0178 274.1266 14.34217989463490 IRIDIUM 117 1 42808U 17039F 26123.19234891 .00000145 00000+0 44712-4 0 9994 2 42808 86.4007 12.3986 0002299 86.3457 273.8002 14.34218184463521 IRIDIUM 126 1 42809U 17039G 26123.21771941 .00000085 00000+0 23361-4 0 9990 2 42809 86.4009 12.4384 0002245 89.1604 270.9849 14.34218073463505 IRIDIUM 124 1 42810U 17039H 26123.26469643 .00000112 00000+0 27394-4 0 9991 2 42810 86.4454 309.1560 0002227 89.5721 270.5736 14.43282616468631 IRIDIUM 128 1 42811U 17039J 26123.20845748 .00000118 00000+0 35123-4 0 9995 2 42811 86.3993 43.9467 0002363 79.7237 280.4226 14.34218234463535 IRIDIUM 121 1 42812U 17039K 26123.23675078 .00000259 00000+0 85467-4 0 9998 2 42812 86.4011 12.4579 0002158 82.1079 278.0362 14.34222834463385 IRIDIUM 133 1 42955U 17061A 26123.24017066 .00000052 00000+0 11448-4 0 9998 2 42955 86.3996 44.0503 0002264 84.7366 275.4088 14.34217813448332 IRIDIUM 100 1 42956U 17061B 26123.23382780 .00000093 00000+0 26214-4 0 9998 2 42956 86.3993 43.9725 0002268 84.3084 275.8370 14.34217967448339 IRIDIUM 122 1 42957U 17061C 26123.20211537 .00000034 00000+0 52440-5 0 9993 2 42957 86.3993 43.9859 0002266 86.5204 273.6251 14.34217641448337 IRIDIUM 129 1 42958U 17061D 26123.22748469 .00000018 00000+0 -72469-6 0 9992 2 42958 86.3989 44.0417 0001888 90.2430 269.8982 14.34217611448354 IRIDIUM 119 1 42959U 17061E 26123.19577247 .00000053 00000+0 11889-4 0 9998 2 42959 86.3995 44.0507 0002241 88.1162 272.0291 14.34217859448368 IRIDIUM 107 1 42960U 17061F 26123.21480066 .00000051 00000+0 11250-4 0 9995 2 42960 86.3995 44.0637 0002486 85.7641 274.3839 14.34217835448378 IRIDIUM 132 1 42961U 17061G 26123.22114264 .00000074 00000+0 19247-4 0 9990 2 42961 86.3994 44.0408 0002266 85.2117 274.9337 14.34218048448379 IRIDIUM 136 1 42962U 17061H 26122.20632793 .00000044 00000+0 86932-5 0 9993 2 42962 86.3994 44.4713 0002288 87.0042 273.1415 14.34217872448242 IRIDIUM 139 1 42963U 17061J 26123.18942776 .00000225 00000+0 73267-4 0 9994 2 42963 86.3997 44.1218 0002315 82.7189 277.4270 14.34219352448395 IRIDIUM 125 1 42964U 17061K 26123.24651324 .00000061 00000+0 14667-4 0 9995 2 42964 86.3998 44.1583 0002549 94.7870 265.3617 14.34218032448419 IRIDIUM 135 1 43070U 17083A 26123.08110171 .00000056 00000+0 12993-4 0 9994 2 43070 86.3978 340.8801 0002172 86.7070 273.4374 14.34217864437689 IRIDIUM 138 1 43071U 17083B 26123.10647173 .00000039 00000+0 68310-5 0 9991 2 43071 86.3988 340.5580 0002116 95.7083 264.4354 14.34217821437674 IRIDIUM 116 1 43072U 17083C 26123.14454777 .00000310 00000+0 10356-3 0 9999 2 43072 86.3976 340.8401 0002292 78.4119 281.7334 14.34218442437715 IRIDIUM 130 1 43073U 17083D 26123.04304651 .00000015 00000+0 -18544-5 0 9996 2 43073 86.3983 341.1529 0002262 83.6417 276.5036 14.34217557437644 IRIDIUM 151 1 43074U 17083E 26123.15721211 .00000066 00000+0 16595-4 0 9992 2 43074 86.3977 340.8915 0002139 84.8570 275.2870 14.34218117437688 IRIDIUM 134 1 43075U 17083F 26123.12549967 .00000052 00000+0 11413-4 0 9995 2 43075 86.3980 340.9122 0002262 86.2022 273.9433 14.34217936437643 IRIDIUM 137 1 43076U 17083G 26123.13818421 .00000070 00000+0 17867-4 0 9990 2 43076 86.3978 340.9986 0001909 73.9428 286.1978 14.34217918437717 IRIDIUM 141 1 43077U 17083H 26123.13184225 .00000211 00000+0 68298-4 0 9990 2 43077 86.3975 340.8347 0002091 88.6116 271.5319 14.34217795437715 IRIDIUM 153 1 43078U 17083J 26123.22355770 .00000024 00000+0 14406-5 0 9991 2 43078 86.3932 309.2834 0002224 95.1662 264.9788 14.34217739438834 IRIDIUM 131 1 43079U 17083K 26123.04938820 .00000014 00000+0 -21674-5 0 9990 2 43079 86.3980 341.0517 0001969 87.5121 272.6300 14.34217616437637 IRIDIUM 144 1 43249U 18030A 26123.22990257 .00000068 00000+0 17267-4 0 9994 2 43249 86.3929 309.2108 0002175 86.0368 274.1076 14.34218183423696 IRIDIUM 149 1 43250U 18030B 26123.23624475 .00000068 00000+0 17139-4 0 9991 2 43250 86.3929 309.1757 0002097 91.6475 268.4961 14.34218255423713 IRIDIUM 157 1 43251U 18030C 26123.25527074 -.00000034 00000+0 -19261-4 0 9994 2 43251 86.3930 309.2199 0002048 89.4815 270.6615 14.34217379423690 IRIDIUM 140 1 43252U 18030D 26123.27429908 .00000067 00000+0 16802-4 0 9996 2 43252 86.3931 309.2247 0002221 88.9291 271.2159 14.34218465423755 IRIDIUM 145 1 43253U 18030E 26123.26161270 .00000017 00000+0 -99260-6 0 9998 2 43253 86.3931 309.2024 0002142 81.0477 279.0961 14.34217892423683 IRIDIUM 146 1 43254U 18030F 26123.24258510 -.00000004 00000+0 -85661-5 0 9997 2 43254 86.3930 309.2226 0002067 86.2517 273.8916 14.34217662423693 IRIDIUM 148 1 43255U 18030G 26123.21088946 .00000068 00000+0 17266-4 0 9992 2 43255 86.3932 309.2783 0002046 88.2430 271.9000 14.34218467423728 IRIDIUM 142 1 43256U 18030H 26123.24894615 .00000087 00000+0 24164-4 0 9990 2 43256 86.3929 309.1530 0002218 84.5875 275.5574 14.34218341423690 IRIDIUM 150 1 43257U 18030J 26123.21721519 -.00000022 00000+0 -14779-4 0 9992 2 43257 86.3931 309.2812 0002062 88.5035 271.6397 14.34217276423716 IRIDIUM 143 1 43258U 18030K 26123.26795604 .00000067 00000+0 16881-4 0 9997 2 43258 86.3935 309.3508 0002219 86.0716 274.0734 14.34218031423652 IRIDIUM 161 1 43478U 18047C 26123.03461854 .00000198 00000+0 52808-4 0 9995 2 43478 86.4450 107.3530 0002087 92.6769 267.4671 14.43279372418626 IRIDIUM 152 1 43479U 18047D 26123.24067393 .00000007 00000+0 -45152-5 0 9994 2 43479 86.3927 107.1276 0002143 91.5130 268.6311 14.34217502416048 IRIDIUM 147 1 43480U 18047E 26123.24701473 .00000113 00000+0 33151-4 0 9992 2 43480 86.3925 107.1292 0002303 85.8014 274.3445 14.34218641416048 IRIDIUM 110 1 43481U 18047F 26123.18358977 .00000042 00000+0 77865-5 0 9995 2 43481 86.3929 107.2465 0002044 96.8922 263.2506 14.34217776416029 IRIDIUM 162 1 43482U 18047G 26123.23630723 -.00000009 00000+0 -85467-5 0 9996 2 43482 86.4452 107.1603 0002316 90.5958 269.5508 14.43278527418649 IRIDIUM 160 1 43569U 18061A 26123.26896299 .00000228 00000+0 74250-4 0 9991 2 43569 86.3951 75.5749 0002178 86.8638 273.2807 14.34217898406933 IRIDIUM 166 1 43570U 18061B 26123.29434333 .00000262 00000+0 86339-4 0 9992 2 43570 86.3949 75.5152 0002322 82.9590 277.1869 14.34221518406963 IRIDIUM 158 1 43571U 18061C 26123.26262172 .00000020 00000+0 -14011-7 0 9994 2 43571 86.3948 75.5388 0002228 88.2956 271.8495 14.34217550406927 IRIDIUM 165 1 43572U 18061D 26123.28799149 .00000052 00000+0 11401-4 0 9997 2 43572 86.3952 75.5734 0002260 82.7361 277.4091 14.34217895406952 IRIDIUM 155 1 43573U 18061E 26123.24993654 .00000067 00000+0 16953-4 0 9994 2 43573 86.3948 75.4604 0002382 86.3189 273.8279 14.34217876406919 IRIDIUM 154 1 43574U 18061F 26123.30067681 .00000015 00000+0 -15604-5 0 9991 2 43574 86.3952 75.5707 0002246 81.9650 278.1801 14.34217579406978 IRIDIUM 163 1 43575U 18061G 26123.28164858 .00000078 00000+0 20854-4 0 9993 2 43575 86.3948 75.4954 0002257 88.7917 271.3538 14.34217272406949 IRIDIUM 156 1 43576U 18061H 26123.25627926 .00000050 00000+0 10829-4 0 9992 2 43576 86.3949 75.5132 0002421 84.8259 275.3213 14.34217809406938 IRIDIUM 164 1 43577U 18061J 26123.23724875 .00000188 00000+0 59964-4 0 9997 2 43577 86.3950 75.5608 0002172 81.6790 278.4652 14.34219070406974 IRIDIUM 159 1 43578U 18061K 26123.27530637 .00000084 00000+0 23081-4 0 9999 2 43578 86.3948 75.4826 0002178 87.9798 272.1647 14.34218080406948 IRIDIUM 180 1 43922U 19002A 26123.20503387 .00000103 00000+0 29736-4 0 9998 2 43922 86.4010 12.3977 0002084 87.1100 273.0334 14.34217748382546 IRIDIUM 176 1 43923U 19002B 26123.23234081 .00000771 00000+0 11844-3 0 9995 2 43923 86.6127 12.3364 0002357 80.0470 280.1013 14.72250121392631 IRIDIUM 168 1 43924U 19002C 26123.19869195 .00000193 00000+0 61995-4 0 9992 2 43924 86.4013 12.4763 0002174 84.7713 275.3731 14.34218950382528 IRIDIUM 173 1 43925U 19002D 26123.18600680 -.00000008 00000+0 -10070-4 0 9999 2 43925 86.4004 12.3721 0002129 87.6835 272.4605 14.34217381382502 IRIDIUM 169 1 43926U 19002E 26123.24966115 .00000190 00000+0 55671-4 0 9991 2 43926 86.4247 43.9722 0002932 88.5057 271.6477 14.38607888383767 IRIDIUM 172 1 43927U 19002F 26123.24942931 .00000086 00000+0 23806-4 0 9991 2 43927 86.4011 12.3537 0002108 86.4724 273.6713 14.34216789382524 IRIDIUM 175 1 43928U 19002G 26123.22078616 .00000104 00000+0 24668-4 0 9998 2 43928 86.4485 309.3306 0004273 42.7409 317.4124 14.43591587392495 IRIDIUM 171 1 43929U 19002H 26123.23040487 .00000038 00000+0 65622-5 0 9997 2 43929 86.4018 12.6628 0002267 82.0192 278.1261 14.34217761382512 IRIDIUM 170 1 43930U 19002J 26123.23851288 .00000841 00000+0 12948-3 0 9991 2 43930 86.6130 12.3365 0002274 86.6546 273.4932 14.72248873392645 IRIDIUM 167 1 43931U 19002K 26123.22406242 .00000055 00000+0 12698-4 0 9997 2 43931 86.4009 12.3863 0002436 79.8109 280.3362 14.34217908382513 IRIDIUM 181 1 56726U 23068S 26123.25033926 .00000353 00000+0 98860-4 0 9994 2 56726 86.4488 75.5712 0002052 82.4564 277.6870 14.43311155155951 IRIDIUM 177 1 56727U 23068T 26123.09714336 .00001020 00000+0 13073-3 0 9992 2 56727 86.1985 350.2106 0002374 92.7932 267.3561 14.80248989159694 IRIDIUM 174 1 56728U 23068U 26123.22615291 .00000845 00000+0 13002-3 0 9994 2 56728 86.6137 12.4844 0002401 89.4596 270.6896 14.72256222159402 IRIDIUM 178 1 56729U 23068V 26123.22140790 .00001272 00000+0 16396-3 0 9996 2 56729 86.6563 44.1434 0002316 80.6680 279.4803 14.80239147159710 IRIDIUM 179 1 56730U 23068W 26123.21604092 .00001273 00000+0 16405-3 0 9999 2 56730 86.6791 52.9922 0002691 79.8543 280.2982 14.80237281159713